OSLO / FORNEBU current weather conditions

sailwx.info

Wind from 230 at 11 knots

Air temperature 8.0° C
Visibility: greater than 5.4 NM
Dewpoint 4.0° C

Last reported at 2015-May-29 00:20 UTC.
Time now 2015-May-29 02:17 UTC

Location: N 59°54' E 010°38'.
View on Google Maps.

See reports from other nearby stations

  
Tides and Currents Weather Stations Pressure Air Temp Water Temp Dewpoint Dewpoint Depression Visibility Wind Speed Wind Dir Waves Ship Positions
date/time (UTC)wind fromknots sea level pressurealtimeterstation pressurevisibilityair tempwater tempwave heightnotes
2015-May-29 01:20 230 9 5.4 7.0
2015-May-29 00:50 240 13 5.4 7.0
2015-May-29 00:20 230 11 5.4 8.0
2015-May-28 23:50 230 12 5.4 8.0
2015-May-28 23:20 230 14 5.4 8.0
2015-May-28 22:50 240 15 5.4 8.0
2015-May-28 22:20 250 15 5.4 7.0
2015-May-28 21:50 250 13 5.4 7.0 Light rain showers.
2015-May-28 21:20 250 14 5.4 8.0
2015-May-28 20:50 250 14 5.4 8.0
2015-May-28 20:20 260 17 5.4 8.0
2015-May-28 19:50 260 15 5.4 8.0
2015-May-28 19:20 270 16 5.4 8.0
2015-May-28 18:50 250 19 5.4 8.0
2015-May-28 18:20 250 14 5.4 8.0
2015-May-28 17:50 270 15 5.4 8.0
2015-May-28 17:20 260 16 5.4 8.0
2015-May-28 16:50 260 16 5.4 9.0
2015-May-28 16:20 250 16 5.4 9.0
2015-May-28 15:50 250 13 5.4 9.0
2015-May-28 15:20 250 11 5.4 8.0
2015-May-28 14:50 230 6 5.4 8.0
2015-May-28 14:20 220 7 5.4 8.0
2015-May-28 13:50 220 7 5.4 9.0
2015-May-28 13:20 210 6 5.4 8.0
2015-May-28 12:50 230 2 5.4 8.0
2015-May-28 12:20 4.3 8.0
2015-May-28 11:50 230 4 5.4 9.0
2015-May-28 11:20 230 3 5.4 8.0
2015-May-28 10:50 230 2 5.4 8.0 Light rain.
2015-May-28 10:20 160 2 3.8 8.0 Light rain.
2015-May-28 09:50 140 6 4.9 8.0 Light rain.
2015-May-28 09:20 150 11 5.4 8.0 Light rain.
2015-May-28 08:50 140 16 5.4 7.0 Light rain.
2015-May-28 08:20 130 17 5.4 7.0 Light rain.
2015-May-28 07:50 140 18 5.4 7.0 Light rain.
2015-May-28 07:20 130 19 5.4 7.0 Light rain showers.